Regional Weather Roundup
Issued by NWS

Home | Current Version | Previous Version | Graphics & Text | Print | Product List | Glossary On
Versions: 1 2 3 4 5 6 7 8 9 10 11 12 13 14 15 16 17 18 19 20 21 22 23 24 25 26 27 28 29 30 31 32 33 34 35 36 37 38 39 40 41 42 43 44 45 46 47 48 49 50
000
ASUS45 KPSR 011800
RWRAZ

PRELIMINARY ARIZONA REGIONAL HOURLY WEATHER ROUNDUP
NATIONAL WEATHER SERVICE PHOENIX AZ
1100 AM MST SUN MAR 01 2015

NOTE: FAIR INDICATES FEW OR NO CLOUDS BELOW 12,000 FEET WITH NO
SIGNIFICANT WEATHER AND/OR OBSTRUCTIONS TO VISIBILITY.

AZZ001>003-036-011900-
NORTHWEST ARIZONA

CITY           SKY/WX    TMP DP  RH WIND       PRES   REMARKS
KINGMAN        CLOUDY    50  35  56 SW5       29.99S
6HR MIN TEMP:  47; 6HR MAX TEMP:  51;

$$

AZZ004>008-015-016-018-011900-
NORTH CENTRAL ARIZONA

CITY           SKY/WX    TMP DP  RH WIND       PRES   REMARKS
GRAND CANYON   SNOW      33  32  96 CALM      30.05R VSB 1/4
6HR MIN TEMP:  32; 6HR MAX TEMP:  33; 6HR PCP:  0.09;

PRESCOTT       LGT RAIN  39  35  86 N8        30.04S FOG     WCI  33
6HR MIN TEMP:  36; 6HR MAX TEMP:  41; 6HR PCP:  0.43;

FLAGSTAFF      SNOW      34  30  86 CALM      30.06R VSB 1/4
PAYSON         CLOUDY    46  45  93 S8        30.08S
PAGE           LGT RAIN  38  35  89 W3        30.08R FOG
6HR MIN TEMP:  38; 6HR MAX TEMP:  39; 6HR PCP:  0.11;

$$

AZZ009>014-017-011900-
NORTHEAST ARIZONA

CITY           SKY/WX    TMP DP  RH WIND       PRES   REMARKS
WINSLOW        LGT RAIN  39  37  93 NW13      30.09R WCI  32
SAINT JOHNS    CLOUDY    54  39  57 S3        30.05S
6HR MIN TEMP:  42; 6HR MAX TEMP:  54; 6HR PCP:  0.01;

WINDOW ROCK    CLOUDY    44  39  82 SW14      30.07S
6HR MIN TEMP:  35; 6HR MAX TEMP:  44; 6HR PCP:  0.03;

SHOW LOW       PTSUNNY   46  37  71 SW21G28   30.09S
$$

AZZ023-011900-
GREATER PHOENIX AREA

CITY           SKY/WX    TMP DP  RH WIND       PRES   REMARKS
PHOENIX        CLOUDY    66  48  52 S12       29.97F
6HR MIN TEMP:  61; 6HR MAX TEMP:  66;

GLENDALE       PTSUNNY   66  50  55 SE6       29.99F
DEER VALLEY    CLOUDY    62  48  60 S9        29.99R
6HR MIN TEMP:  59; 6HR MAX TEMP:  62;

SCOTTSDALE     CLOUDY    63  48  58 S10       30.01S
6HR MIN TEMP:  59; 6HR MAX TEMP:  63;

MESA-FALCON    PTSUNNY   64  46  52 S12       29.99F
MESA-GATEWAY   PTSUNNY   66  48  52 SE10      30.02S
CHANDLER       PTSUNNY   66  48  52 S12       30.00S
$$

AZZ027-028-011900-
SOUTHWEST MARICOPA COUNTY AND PINAL COUNTY

CITY           SKY/WX    TMP DP  RH WIND       PRES   REMARKS
CASA GRANDE    MOSUNNY   64  46  52 SE7       30.01S
6HR MIN TEMP:  55; 6HR MAX TEMP:  64;

$$

AZZ503-504-507>509-011900-
SOUTHEAST ARIZONA

CITY           SKY/WX    TMP DP  RH WIND       PRES   REMARKS
TUCSON         SUNNY     66  39  37 E7        30.05S
6HR MIN TEMP:  53; 6HR MAX TEMP:  66;

DAVIS-MONTHAN  SUNNY     66  39  37 S6        30.03F
6HR MIN TEMP:  52; 6HR MAX TEMP:  66;

RYAN FIELD       N/A     68  43  40 SW8G17    30.04S
NOGALES        MOSUNNY   65  35  33 S17G28    30.06F
6HR MIN TEMP:  46; 6HR MAX TEMP:  66;

SIERRA VISTA   SUNNY     64  29  26 SE8G21    30.09F
6HR MIN TEMP:  44; 6HR MAX TEMP:  64;

SAFFORD        SUNNY     67  30  25 SE13      30.03F
6HR MIN TEMP:  46; 6HR MAX TEMP:  68;

$$

AZZ020-021-025-026-031-011900-
SOUTHWEST ARIZONA

CITY           SKY/WX    TMP DP  RH WIND       PRES   REMARKS
YUMA           CLOUDY    64  43  46 N8        29.95F
6HR MIN TEMP:  58; 6HR MAX TEMP:  64; 6HR PCP: TRACE;

$$

CAZ031-033-041-043-047-048-061-011900-
SOUTHERN CALIFORNIA

CITY           SKY/WX    TMP DP  RH WIND       PRES   REMARKS
DOWNTOWN L.A.  PTSUNNY   59  45  59 VRB3      29.95R
6HR MIN TEMP:  52; 6HR MAX TEMP:  59;

L.A. AIRPORT   PTSUNNY   57  47  69 E6        29.95S
6HR MIN TEMP:  51; 6HR MAX TEMP:  58; 6HR PCP:  0.04;

SAN DIEGO      RAIN      55  49  80 E12       29.98S
6HR MIN TEMP:  55; 6HR MAX TEMP:  58; 6HR PCP:  0.58;

BURBANK        PTSUNNY   55  43  63 CALM      29.94S
6HR MIN TEMP:  47; 6HR MAX TEMP:  56; 6HR PCP: TRACE;

ONTARIO        CLOUDY    54  45  71 SE8       29.95S
6HR MIN TEMP:  49; 6HR MAX TEMP:  55;

RIVERSIDE      CLOUDY    54  46  74 SE10      29.96R
6HR MIN TEMP:  49; 6HR MAX TEMP:  54;

PALM SPRINGS   LGT RAIN  55  48  77 S5        30.01R
6HR MIN TEMP:  53; 6HR MAX TEMP:  56; 6HR PCP:  0.14;

EL CENTRO NAS  LGT RAIN  55  52  89 W5        30.00R FOG
6HR MIN TEMP:  55; 6HR MAX TEMP:  63; 6HR PCP:  0.21;

IMPERIAL       LGT RAIN  54  52  93 W3        29.99R FOG
6HR MIN TEMP:  54; 6HR MAX TEMP:  61; 6HR PCP:  0.16;

BLYTHE         LGT RAIN  55  50  83 S6        29.99R
6HR MIN TEMP:  55; 6HR MAX TEMP:  59; 6HR PCP:  0.06;

$$

NVZ020-UTZ003-011900-
SOUTHERN NEVADA-UTAH

CITY           SKY/WX    TMP DP  RH WIND       PRES   REMARKS
LAS VEGAS      NOT AVBL
SALT LAKE CITY MOSUNNY   41  27  57 CALM      30.10S
6HR MIN TEMP:  32; 6HR MAX TEMP:  41;

$$

NMZ009-TXZ055-011900-
NEW MEXICO-WEST TEXAS

CITY           SKY/WX    TMP DP  RH WIND       PRES   REMARKS
ALBUQUERQUE    MOSUNNY   44  36  73 CALM      30.14S
6HR MIN TEMP:  33; 6HR MAX TEMP:  44; 6HR PCP: TRACE;

EL PASO        PTSUNNY   62  32  32 S5        30.12F
6HR MIN TEMP:  42; 6HR MAX TEMP:  62;

$$


........................KEY........................
SKY/WX - SKY CONDITION/WEATHER
TMP    - TEMPERATURE IN FAHRENHEIT
DP     - DEW POINT IN FAHRENHEIT
RH     - RELATIVE HUMIDITY IN PERCENT
WIND   - DIRECTION AND SPEED IN MILES PER HOUR (MPH)
VRB    - VARIABLE WIND DIRECTION
PRES   - MEAN SEA LEVEL PRESSURE IN INCHES OF MERCURY
         F - FALLING PRESSURE   R - RISING PRESSURE
         S - STEADY PRESSURE
VSB    - VISIBILITY IN MILES
HX     - HEAT INDEX IN FAHRENHEIT
WCI    - WIND CHILL INDEX IN FAHRENHEIT
TC     - TEMPERATURE IN CELSIUS WHICH IS ALSO KNOWN AS
         TEMPERATURE IN CENTIGRADE
AFB    - AIR FORCE BASE
         LUKE AFB IS LUKE AIR FORCE BASE
         DAVIS-MONTHAN IS DAVIS-MONTHAN AIR FORCE BASE
NAS    - NAVAL AIR STATION
         EL CENTRO NAS IS EL CENTRO NAVAL AIR STATION
N/A    - NOT AVAILABLE


USA.gov is the U.S. government's official web portal to all federal, state and local government web resources and services.